Regional Weather Roundup
Issued by NWS Newport/Morehead, NC

Current Version | Previous Version | Graphics & Text | Print | Product List | Glossary Off
Versions: 1 2 3 4 5 6 7 8 9 10 11 12 13 14 15 16 17 18 19 20 21 22 23 24 25 26 27 28 29 30 31 32 33 34 35 36 37 38 39 40 41 42 43 44 45 46 47 48 49 50
000 ASUS42 KMHX 020725 RWRMHX WEATHER ROUNDUP FOR EASTERN NORTH CAROLINA NATIONAL WEATHER SERVICE NEWPORT/MOREHEAD CITY NC 300 AM EDT MON MAY 02 2016 NOTE: "FAIR" INDICATES FEW OR NO CLOUDS BELOW 12,000 FEET WITH NO SIGNIFICANT WEATHER AND/OR OBSTRUCTIONS TO VISIBILITY NCZ015>017-031-032-045>047-102-103-020800- NORTH COAST CITY SKY/WX TMP DP RH WIND PRES REMARKS EDENTON CLOUDY 67 67 100 S5 30.01F ELIZABETH CITY CLOUDY 66 64 93 S5 30.01F KITTY HAWK PTSUNNY 68 67 94 SW6 30.00F MANTEO NOT AVBL $$ NCZ045>047-081-094-103-104-020800- CENTRAL COAST CITY SKY/WX TMP DP RH WIND PRES REMARKS FRISCO CLOUDY 68 67 96 SW6 30.03F SWANQUARTER NOT AVBL $$ NCZ095-097-098-100-101-020800- SOUTHERN COAST CITY SKY/WX TMP DP RH WIND PRES REMARKS BEAUFORT MOCLDY 69 67 93 S7 30.03F CEDAR ISLAND NOT AVBL JACKSONVILLE CLOUDY 68 65 90 CALM 30.02S PINEY ISLAND NOT AVBL WILMINGTON CLOUDY 66 65 96 CALM 30.02F $$ NCZ011>013-027>030-043-044-078>080-089-090>093-098-020800- COASTAL PLAIN CITY SKY/WX TMP DP RH WIND PRES REMARKS AHOSKIE CLOUDY 65 64 98 S3 29.99S FOG CLINTON CLOUDY 67 67 100 S6 30.01F ELIZABETHTOWN CLOUDY 67 67 100 CALM 30.02S GOLDSBORO MOCLDY 68 68 100 SW7 29.98F GREENVILLE CLOUDY 68 68 100 SW7 30.02S HAVELOCK CLOUDY 70 67 90 SW8 30.03F KENANSVILLE CLOUDY 66 65 97 CALM 30.03S KINSTON CLOUDY 68 67 96 SW8 30.01F NEW BERN MOCLDY 68 66 93 S5 30.03F RICHLANDS CLOUDY 65 65 100 S5 30.02F FOG ROCKY MOUNT CLOUDY 67 66 97 SW7 29.99F WASHINGTON CLOUDY 66 65 96 S5 30.01S WHITEVILLE PTCLDY 66 64 95 CALM 30.02S $$ AMZ130-135-150-152-154-156-158-170-250-252-270-ANZ085-086-088-633-658-670-020800- MARINE OBSERVATIONS STATION/POSITION TIME TEMP WIND PRES WAVE SWELL AIR SEA DIR/SP/G HT/PER HT/PER (UTC) (F) (DEG/KT/KT) (MB) (FT/S) (FT/S) CHESAPEAKE LIGHT 0700 62 200/ 21/ 22 1015.4 64 E VA BEACH 0650 57 53 230/ 6/ 8 1016.0 4/11 3/11 DUCK 0700 67 66 200/ 9/ 12 1015.6 2 E DUCK 0611 58 N/A 3/10 2/11 OREGON INLET 0700 69 67 200/ 11/ 12 1016.3 13E OREGON INLT 0700 59 N/A 4/ 5 3/ 9 HATTERAS CG 0700 70 68 200/ 5/ 8 1016.7 DIAMOND BUOY 0650 74 73 210/ 16/ 17 1016.8 4/ 8 2/ 8 CAPE LOOKOUT 0700 69 210/ 5/ 5 1016.9 BEAUFORT LAB 0700 69 67 210/ 5/ 7 1016.1 30 SE NEW RVR IN 0625 71 N/A 4/ 9 27 SE WRIGHTSVLE 0708 73 71 220/ 10/ 14 1016.2 5 SE WRIGHTSVLE 0608 70 68 230/ 6/ 8 1017.7 225 S CAPE HAT 0650 73 74 150/ 12/ 14 1019.4 4/10 3/10 41 SE CHARLESTON 0650 75 73 170/ 12/ 14 1016.0 3/ 9 2/ 9 $$

USA.gov is the U.S. government's official web portal to all federal, state and local government web resources and services.